Location: Unspecified
(22.6800°N, 112.2000°E)
Time: 10:38:30
(UTC+08:00)

S-56A Canister/Altair - Pass Details

Date: 26 July 2021
Orbit: 632 x 2500 km, 38.9° (Epoch: 21 September)

Event Time Altitude Azimuth Distance (km) Brightness Sun altitude
Rises 20:39:03 0° 296° (WNW) 6,161 13.8 -18.2°
Reaches altitude 10° 20:43:43 10° 303° (WNW) 5,067 12.9 -19.1°
Maximum altitude 20:56:46 40° 8° (N) 2,759 10.4 -21.6°
Enters shadow 21:05:40 13° 73° (ENE) 3,628 10.6 -23.3°
Drops below altitude 10° 21:06:30 10° 76° (ENE) 3,813 - -23.5°
Sets 21:09:28 0° 84° (E) 4,547 - -24.1°
